Regional Weather Roundup
Issued by NWS

Home | Current Version | Previous Version | Graphics & Text | Print | Product List | Glossary On
Versions: 1 2 3 4 5 6 7 8 9 10 11 12 13 14 15 16 17 18 19 20 21 22 23 24 25 26 27 28 29 30 31 32 33 34 35 36 37 38 39 40 41 42 43 44 45 46 47 48 49 50
000
ASUS45 KSLC 031310
RWRUT
UTAH REGIONAL WEATHER ROUNDUP
NATIONAL WEATHER SERVICE SALT LAKE CITY UT
700 AM MDT MON AUG 03 2015

UTZ001>011-023>025-031400-

NORTHERN UTAH

CITY           SKY/WX    TMP DP  RH WIND       PRES   REMARKS
BRIGHAM CITY   CLOUDY    70  53  53 S15G23    30.05R
HILL AFB       LGT RAIN  63  60  89 S12       30.08R
LOGAN          LGT RAIN  70  53  54 S16       30.03R
OGDEN          LGT RAIN  64  59  83 SW7       30.05R
PROVO AIRPORT  RAIN      61  57  88 CALM      30.09R
SALT LAKE CITY LGT RAIN  64  61  90 E10       30.06R
VERNAL         CLOUDY    63  58  83 CALM      30.11R
WENDOVER       CLOUDY    72  52  49 SE22      30.03R
HEBER CITY     LGT RAIN  55  54  94 CALM      30.11S
WEST JORDAN    CLOUDY    61  61 100 E5        30.09R

$$

UTZ012>022-026-027-031400-

SOUTHERN/CENTRAL UTAH

CITY           SKY/WX    TMP DP  RH WIND       PRES   REMARKS
BLANDING       MOCLDY    59  57  95 CALM      30.27R
BRYCE CANYON   PTCLDY    45  44  97 W6        30.28R
CEDAR CITY     CLEAR     57  47  69 E3        30.15R
DELTA          CLOUDY    60  55  82 NE12      30.12R
HANKSVILLE     CLEAR     59  59 100 N3        30.09R
MILFORD        MOCLDY    63  50  62 N13       30.11R
MOAB/CYNLANDS  CLEAR     63  62  97 CALM      30.07R
PRICE          CLOUDY    60  57  89 SE5       30.12R
ST GEORGE      CLOUDY    73  52  46 S5        29.98R
KANAB          CLEAR     57  52  82 CALM      30.17R

$$

REGIONAL REPORTS     COLORADO/ARIZONA

CITY           SKY/WX    TMP DP  RH WIND       PRES   REMARKS
CRAIG, CO      CLOUDY    59  32  36 NW6       30.18R
GRAND JUNCTION MOCLDY    62  57  83 CALM      30.10R
RIFLE          CLOUDY    62  59  90 MISG      30.17R
MONTROSE       CLOUDY    61  58  90 CALM      30.20R
CORTEZ         CLEAR     55  54  96 E5        30.20R
PAGE, AZ       CLEAR     66  60  81 CALM      30.08R
GRAND CANYON   CLEAR     47  46  97 CALM      30.24R
KINGMAN        CLEAR     75  44  33 SE12      29.98R
FLAGSTAFF      CLEAR     47  46  97 SW3       30.27R

$$

REGIONAL REPORTS    NEVADA/IDAHO/WYOMING

CITY           SKY/WX    TMP DP  RH WIND       PRES   REMARKS
LAS VEGAS, NV  PTCLDY    85  40  20 S8        29.82R
ELY            PTCLDY    51  40  65 S10       30.17R
ELKO           CLOUDY    65  49  56 SW3       30.07S
POCATELLO, ID  CLEAR     73  46  38 S5        29.99R
BURLEY         CLOUDY    73  45  36 SW9       29.96R
EVANSTON, WY   LGT RAIN  56  51  84 W12       30.18R
ROCK SPRINGS   CLOUDY    62  47  57 SE6       30.18R
KEMMERER       CLOUDY    59  46  63 NW7       30.20S

$$



USA.gov is the U.S. government's official web portal to all federal, state and local government web resources and services.